Location: Unspecified
(40.9447°N, 78.9903°W)
Time: 22:38:49
(UTC-04:00)

ISS - Visible Passes

Search period start: 22 May 2019 00:00
Search period end: 01 June 2019 00:00
Orbit: 407 x 410 km, 51.6° (Epoch: 23 May)

Date Brightness Start Highest point End Pass type
(mag) Time Alt. Az. Time Alt. Az. Time Alt. Az.
22 May -0.8 01:23:32 10° NNW 01:25:02 17° N 01:25:02 17° N visible
22 May -2.0 21:16:52 10° W 21:19:56 35° NNW 21:23:00 10° NE visible
22 May -0.6 22:55:23 10° NW 22:57:14 14° N 22:59:06 10° NNE visible
23 May -0.8 00:32:45 10° NNW 00:34:51 16° NNE 00:35:25 15° NNE visible
23 May -0.8 22:03:51 10° NW 22:06:02 16° NNW 22:08:15 10° NNE visible
23 May -0.7 23:41:52 10° NNW 23:43:38 14° N 23:45:24 10° NE visible
24 May -0.8 01:18:00 10° NW 01:18:38 14° NNW 01:18:38 14° NNW visible
24 May -1.0 21:12:18 10° WNW 21:14:52 21° NNW 21:17:28 10° NNE visible
24 May -0.7 22:50:46 10° NNW 22:52:23 13° N 22:54:01 10° NNE visible
25 May -1.2 00:27:13 10° NNW 00:29:13 21° N 00:29:13 21° N visible
25 May -0.8 21:59:25 10° NW 22:01:08 13° N 22:02:51 10° NNE visible
25 May -1.2 23:36:26 10° NNW 23:38:43 17° NNE 23:39:50 15° NE visible
26 May -0.6 01:12:29 10° NW 01:12:32 10° NW 01:12:32 10° NW visible
26 May -0.9 21:07:53 10° NW 21:09:53 15° N 21:11:53 10° NNE visible
26 May -0.9 22:45:34 10° NNW 22:47:29 14° N 22:49:24 10° NE visible
27 May -1.3 00:21:37 10° NW 00:23:10 23° NNW 00:23:10 23° NNW visible
27 May -0.9 21:54:33 10° NNW 21:56:13 13° N 21:57:53 10° NE visible
27 May -1.9 23:30:49 10° NW 23:33:39 26° NNE 23:33:50 26° NNE visible
28 May -1.4 22:39:59 10° NNW 22:42:28 19° NNE 22:44:31 12° ENE visible
29 May -1.3 00:16:06 10° NW 00:17:14 20° NW 00:17:14 20° NW visible
29 May -1.1 21:49:08 10° NNW 21:51:14 16° NNE 21:53:19 10° NE visible
29 May -2.8 23:25:10 10° NW 23:27:55 45° N 23:27:55 45° N visible
30 May -2.3 22:34:17 10° NW 22:37:17 31° NNE 22:38:39 22° ENE visible
31 May -1.0 00:10:49 10° WNW 00:11:22 14° WNW 00:11:22 14° WNW visible
31 May -1.7 21:43:26 10° NNW 21:46:05 22° NNE 21:48:45 10° ENE visible
31 May -2.9 23:19:38 10° WNW 23:22:06 45° WNW 23:22:06 45° WNW visible
